Regional Weather Roundup
Issued by NWS

Home | Current Version | Previous Version | Text Only | Print | Product List | Glossary On
Versions: 1 2 3 4 5 6 7 8 9 10 11 12 13 14 15 16 17 18 19 20 21 22 23 24 25 26 27 28 29 30 31 32 33 34 35 36 37 38 39 40 41 42 43 44 45 46 47 48 49 50
000
ASUS45 KABQ 120910
RWRNM
WEATHER ROUNDUP FOR NEW MEXICO
NATIONAL WEATHER SERVICE ALBUQUERQUE NM
300 AM MDT SAT JUL 12 2014

NOTE: "FAIR" MEANS FEW OR NO CLOUDS BELOW 12,000 FEET AGL WITH NO
       SIGNIFICANT WEATHER OR OBSTRUCTIONS TO VISION.

      THIS PRODUCT IS RELEASED AS TWO VERSIONS.  ONE VERSION NEAR
      THE TOP OF THE HOUR CONTAINING PRELIMINARY DATA FROM ALBUQUERQUE
      AND OTHER STATIONS.  A FINAL VERSION WITH ADDITIONAL DATA IS
      ISSUED ABOUT 10 MINUTES AFTER THE HOUR.

NMZ501-503-504-510>518-121000-
NORTHWEST PLATEAU/NORTHCENTRAL MOUNTAINS

CITY           SKY/WX    TMP DP  RH WIND       PRES   REMARKS
FARMINGTON     CLOUDY    68  55  63 E6        30.23F
LOS ALAMOS     PTCLDY    62  52  71 CALM      30.35F
SANTA FE       PTCLDY    59  54  83 N3        30.28F
TAOS             N/A    N/A N/A N/A MISG        N/A
ANGEL FIRE     FOG       44  44  97 CALM      30.45S VSB 1/2

$$
NMZ402-403-502-505>509-121000-
WESTCENTRAL MOUNTAINS/SOUTHWEST MOUNTAINS

CITY           SKY/WX    TMP DP  RH WIND       PRES   REMARKS
GALLUP         CLOUDY    61  58  90 CALM      30.29F
GRANTS         MOCLDY    59  53  81 CALM      30.32R
SILVER CITY    MOCLDY    66  55  68 N8        30.22F

$$
NMZ407-409-411-412-121000-
SOUTHERN DESERTS

CITY           SKY/WX    TMP DP  RH WIND       PRES   REMARKS
LORDSBURG      FAIR      66  63  88 CALM      30.14S
DEMING         MOCLDY    70  61  73 E6        30.13S
LAS CRUCES     MOCLDY    70  61  71 CALM      30.15S
HOLLOMAN AFB   PTCLDY    70  56  62 W8        30.12S
ALAMOGORDO     CLEAR     66  59  77 CALM      30.14S
T OR C         CLOUDY    67  59  75 NE3       30.16S

$$
NMZ519>523-121000-
CENTRAL VALLEYS/CENTRAL HIGHLANDS

CITY           SKY/WX    TMP DP  RH WIND       PRES   REMARKS
ALBUQUERQUE    PTCLDY    68  55  63 CALM      30.22S
DOUBLE EAGLE   PTCLDY    62  54  75 W5        30.25S
MORIARTY ARPT  FAIR      59  53  80 CALM      30.29S
CLINES CORNERS CLEAR     60  50  69 S12       30.32F
BELEN          FAIR      64  60  88 W6        30.22S
SOCORRO        FAIR      69  55  60 N7        30.17F

$$
NMZ524>526-539-540-121000-
SOUTHCENTRAL MOUNTAINS

CITY           SKY/WX    TMP DP  RH WIND       PRES   REMARKS
RUIDOSO        CLEAR     57  54  88 CALM      30.35S

$$
NMZ527>531-121000-
NORTHEAST HIGHLANDS/NORTHEAST PLAINS

CITY           SKY/WX    TMP DP  RH WIND       PRES   REMARKS
LAS VEGAS      CLEAR     59  49  69 S15       30.33F
RATON          CLEAR     64  49  57 SW6       30.27S
CLAYTON        CLEAR     68  55  63 S17       30.20F

$$
NMZ532>537-121000-
EASTCENTRAL PLAINS

CITY           SKY/WX    TMP DP  RH WIND       PRES   REMARKS
TUCUMCARI      CLEAR     71  59  65 S12       30.17S
CANNON AFB     CLEAR     65  63  93 S8        30.22S
CLOVIS AIRPORT NOT AVBL

$$
NMZ028-029-538-121000-
SOUTHEAST PLAINS

CITY           SKY/WX    TMP DP  RH WIND       PRES   REMARKS
ROSWELL        CLEAR     70  60  70 S6        30.16F
ARTESIA        CLEAR     68  59  73 SE5       30.15F
CARLSBAD       CLOUDY    73  61  65 SE6       30.12F
HOBBS          PTCLDY    68  63  83 SE7       30.18F


$$


USA.gov is the U.S. government's official web portal to all federal, state and local government web resources and services.